Lid_Strength_Index
1 1 1 1 1 2 3 4 3 3 0 3 3 2 3 1 0 1 1 1 1 1 1 2 1 1 2 1 1 1 2 2 4 3 1 2 3 2 0 1 0 -0 0
1 1 1 1 1 1 4 4 3 3 3 2 3 4 4 1 1 1 1 1 1 2 2 2 2 1 1 1 1 2 2 2 3 4 2 2 2 2 2 2 -0 -1 0
1 2 2 1 1 1 2 4 3 3 3 4 5 5 2 1 1 1 1 1 1 1 1 2 1 2 2 2 2 2 2 1 2 3 3 2 2 1 1 1 1 1 -0
2 2 2 2 2 2 1 1 3 2 2 2 1 1 1 1 1 1 1 1 1 1 1 1 1 1 2 2 2 2 2 2 2 3 3 3 2 2 2 3 2 1 1
2 2 2 1 1 1 1 1 1 1 1 1 1 1 1 1 1 1 1 1 1 1 1 1 1 0 1 2 2 2 2 2 3 3 3 3 3 3 3 2 3 2 2
2 2 2 1 1 1 1 1 1 1 1 1 1 1 1 0 2 1 1 1 1 1 2 1 1 1 1 1 2 2 2 4 4 3 3 4 3 3 2 3 3 3 4
2 2 2 2 2 2 1 1 1 1 1 1 1 1 2 3 4 3 1 1 1 1 2 2 1 2 2 2 2 1 2 2 2 3 4 3 3 2 2 3 3 3 3
2 2 2 2 2 2 2 2 2 1 1 1 1 1 3 4 4 3 1 1 1 2 1 1 2 4 2 2 1 2 1 1 2 2 3 2 2 1 1 1 2 3 2
3 2 2 2 2 2 2 2 2 2 2 1 1 3 4 5 5 3 2 1 1 2 4 3 3 4 2 2 1 3 2 2 2 2 2 2 2 2 2 2 3 3 4
2 2 2 2 2 2 2 2 1 2 2 1 1 2 4 6 6 4 3 1 2 2 6 6 4 4 3 2 3 3 3 4 4 3 2 1 1 1 2 2 2 4 4
2 2 2 1 2 1 1 1 1 2 2 2 2 3 4 6 7 5 4 2 2 2 4 6 5 3 3 3 2 2 3 3 3 3 2 2 2 1 1 0 1 2 3
2 2 2 2 1 1 2 1 2 2 2 2 2 3 6 6 6 6 6 5 3 3 3 4 4 3 3 3 3 2 2 2 3 3 4 4 4 3 2 1 1 1 1
2 2 2 2 2 1 2 2 2 2 2 2 2 4 6 5 6 6 7 6 5 5 3 2 3 3 4 3 2 2 2 3 3 4 4 4 4 3 3 3 2 2 2
2 2 2 2 2 2 1 2 2 2 2 2 3 4 5 6 6 7 6 6 5 4 1 3 2 2 3 2 2 3 3 4 4 4 4 4 3 3 4 3 2 2 2
2 2 2 2 2 2 8 5 2 1 2 2 2 3 4 5 5 6 6 5 5 4 3 3 3 3 3 4 4 4 5 4 5 5 5 5 5 4 5 3 3 4 4
3 3 2 2 2 7 10 12 15 16 15 13 9 4 6 6 10 10 11 11 10 8 5 3 4 5 5 5 5 5 5 5 6 5 5 6 6 6 6 5 5 5 6
3 3 2 3 6 8 9 9 10 13 14 13 15 14 11 12 14 13 13 12 11 7 6 5 5 5 5 5 6 6 6 6 6 6 6 6 6 6 6 6 6 6 6
2 7 2 3 6 7 8 8 7 7 8 10 13 13 12 12 13 14 12 9 9 8 7 6 5 5 6 6 6 6 6 6 6 7 6 7 7 8 8 8 8 8 8
2 2 3 3 4 6 6 6 5 6 7 9 12 12 14 14 14 13 11 7 8 8 8 7 5 5 5 6 5 6 6 7 8 8 8 9 9 9 10 9 9 8 8
4 7 6 5 5 5 4 4 4 5 8 9 9 11 11 11 10 10 8 7 6 7 8 7 5 5 5 5 6 6 7 8 9 9 11 10 10 10 10 9 9 9 8
4 5 5 5 5 4 3 3 3 5 6 7 7 8 10 9 9 8 8 7 6 7 7 6 5 5 5 5 6 8 9 9 10 11 11 11 11 11 10 10 9 9 9
4 4 4 4 3 4 2 2 3 4 5 5 5 8 11 8 7 7 7 6 7 7 5 4 5 5 5 6 7 8 8 11 12 12 12 12 12 11 11 11 9 9 8
4 3 3 2 2 4 2 2 2 2 2 3 4 7 8 8 6 6 6 7 7 6 5 6 6 6 7 8 7 8 11 12 12 12 13 13 12 12 12 10 10 9 9
3 2 3 3 2 2 2 2 2 4 2 2 3 6 7 7 5 6 6 7 7 5 6 6 6 8 8 9 10 11 12 12 13 14 14 13 13 12 11 10 9 9 9
2 2 3 4 3 2 2 2 2 2 2 3 5 6 6 6 6 7 7 7 7 6 7 7 8 8 9 12 13 15 15 16 15 15 14 14 13 12 11 10 10 9 10
2 2 2 2 3 2 2 2 2 2 3 5 5 5 5 5 6 8 8 8 7 8 8 8 8 8 10 12 13 16 18 17 16 17 16 15 14 12 10 10 10 10 10